Retour au catalogue

SO-50

SAUDISAT 1C

ActifRadio amateurLEO
NORAD 27607·PAYLOAD·🇸🇦 Saudi Arabia

Lancé Dec 20, 2002 depuis Baikonur Cosmodrome

Loading…

Prochains Passages (prochaines 24 heures)

TLE

FraisSource: Space-Track

Époque: Sep 14, 2026, 07:05 UTC

1 27607U 02058C   26257.29580827  .00000780  00000-0  10940-3 0  9992
2 27607  64.5515 213.2481 0072027 246.1134 113.2415 14.83210726277670

Suivez SO-50 en temps réel avec AllMySat

Download on the App Store